Simultaneous Nadir Overpasses (SNOs) Predictions

Prediction of SNOs between METOP-B and NOAA-19 Satellite Orbit:

Table of predicted SNOs for the next 14.0 days since TLE Epoch: 4/20/2017
Index Date (METOP-B) Time (METOP-B) Lat,Lon (METOP-B) SZA (METOP-B ) Date (NOAA-19) Time (NOAA-19) Lat,Lon (NOAA-19) SZA (NOAA-19 ) Distance(km) Time Diff (sec)
1 04/21/2017 20:27:15 -77.05, 57.38 115.13 04/21/2017 20:26:06 -77.06, 57.45 115.12 2.22 69
2 04/21/2017 21:17:55 77.04,-135.33 64.86 04/21/2017 21:17:06 77.04,-135.20 64.85 3.35 49
3 04/21/2017 22:08:37 -77.03, 31.96 115.17 04/21/2017 22:08:07 -77.03, 32.07 115.17 2.66 30
4 04/21/2017 22:59:17 77.02,-160.75 64.81 04/21/2017 22:59:08 77.05,-160.77 64.85 3.90 9
5 04/21/2017 23:49:59 -77.01, 6.54 115.21 04/21/2017 23:50:08 -77.00, 6.68 115.21 3.54 9
6 04/22/2017 00:40:39 77.00, 173.83 64.77 04/22/2017 00:41:09 77.02, 173.84 64.80 3.02 30
7 04/22/2017 01:31:21 -76.99, -18.87 115.26 04/22/2017 01:32:10 -77.02, -18.88 115.23 3.15 49
8 04/22/2017 02:22:01 76.98, 148.41 64.72 04/22/2017 02:23:10 77.00, 148.46 64.75 2.41 69
9 05/02/2017 14:04:25 77.16, -26.48 61.60 05/02/2017 14:03:11 77.17, -27.02 61.60 13.24 74
10 05/02/2017 14:55:09 -77.07, 140.50 118.50 05/02/2017 14:54:13 -77.09, 140.58 118.49 2.67 56
11 05/02/2017 15:45:48 77.10, -52.08 61.51 05/02/2017 15:45:11 77.10, -52.21 61.51 3.20 37
12 05/02/2017 16:36:31 -77.06, 115.08 118.54 05/02/2017 16:36:14 -77.06, 115.19 118.53 3.01 17
13 05/02/2017 17:27:10 77.08, -77.50 61.47 05/02/2017 17:27:12 77.08, -77.60 61.47 2.30 2
14 05/02/2017 18:17:53 -77.04, 89.66 118.58 05/02/2017 18:18:15 -77.04, 89.81 118.58 3.71 22
15 05/02/2017 19:08:32 77.06,-102.92 61.43 05/02/2017 19:09:13 77.05,-102.98 61.43 1.74 41
16 05/02/2017 19:59:15 -77.02, 64.24 118.63 05/02/2017 20:00:17 -77.05, 64.24 118.59 3.79 62
17 05/02/2017 20:50:00 76.77,-129.40 61.10 05/02/2017 20:51:09 76.81,-127.45 61.19 49.85 69




NCC Satellite Simultaneous Nadir Overpasses (SNOs) Prediction Service
